Location: Barcelona
(41.3830°N, 2.1830°E)
Time: 00:07:23
(UTC+02:00)

ISS - Pass Details

Date: 23 May 2019
Orbit: 408 x 418 km, 51.6° (Epoch: 26 May)

Event Time Altitude Azimuth Distance (km) Brightness Sun altitude
Rises 01:52:37 0° 309° (NW) 2,360 0.6 -28.1°
Reaches altitude 10° 01:54:59 10° 324° (NW) 1,496 -0.3 -28.1°
Enters shadow 01:56:28 19° 346° (NNW) 1,071 -1.0 -28.1°
